Погода в Кишиневе

Молдова     47°01′28″N   28°49′56″E
темп.,
°C
ветер,
м/с
пор.,
м/с
влажн.,
%
обл.,
%
осадки,
мм/ч
давл.,
гПа
погр.,
м
26 октября, вт
вт2600:00+3ююв22550 0.0 103317
03:00+2ююв33631 0.0 103226
06:00+1ююв33803 0.0 103139
09:00+3ююв38695 0.0 1031223
12:00+10ю78472 0.0 10291029
15:00+13ююв68422 0.0 10271260
18:00+9ююв48552 0.0 1027134
21:00+6ююв511730 0.0 1027258
27 октября, ср
ср2700:00+5ююв49850 0.0 1026172
03:00+5ююв35890 0.0 102691
06:00+5ю22920 0.0 102624
09:00+6ююз27840 0.0 1026219
12:00+12зюз33535 0.0 1026733
15:00+14ссз453768 0.0 1025996
18:00+11ссз224968 0.0 102512
21:00+9сз2259100 0.0 102710
28 октября, чт
чт2800:00+8зсз226461 0.0 102713
03:00+7зсз226772 0.0 102710
06:00+7зсз2269100 0.0 102710
09:00+9зюз116084 0.0 102846
12:00+15зсз234131 0.0 1027602
15:00+18зсз333410 0.0 10261164
18:00+13зсз224489 0.0 102514
21:00+11зсз2248100 0.0 102611
29 октября, пт
пт2900:00+10сз22495 0.0 102614
03:00+9ссз22565 0.0 102714
06:00+8ссз22645 0.0 102710
09:00+10с116233 0.0 102848
12:00+15всв33565 0.0 1028610
15:00+17в33549 0.0 10271030
18:00+14вюв22719 0.0 102714
21:00+11юв22815 0.0 102815
30 октября, сб
сб3000:00+10ююв33862 0.0 102941
03:00+9юв33880 0.0 102935
06:00+8юв33880 0.0 102938
09:00+9юв37820 0.0 1030190
12:00+16ююв68530 0.0 1029960
15:00+18ююв67410 0.0 10281280
18:00+13юв59550 0.0 1029187
21:00+9юв511840 0.0 1030264